• In Hungary
  • List of Countries
  • For 7 days
  • Water Temperature
  • Satellite Maps
  • Weather Map
  • News
  • Weather Widgets
  • user-avatar
    Login

    Hourly Weather Volyncevo

    Today, 26 September, Wednesday

    Time Temperature Precipitation Wind Pressure Humidity
    00:00 +3°C° 0 mm 4 mps 749 mmHg 80%
    01:00 +3°C° 0 mm 4 mps 749 mmHg 80%
    02:00 +1°C° 0 mm 4 mps 750 mmHg 79%
    03:00 +2°C° 0 mm 3 mps 750 mmHg 80%
    04:00 +2°C° 0 mm 3 mps 751 mmHg 81%
    05:00 +1°C° 0 mm 3 mps 751 mmHg 82%
    06:00 +2°C° 0 mm 3 mps 752 mmHg 81%
    07:00 +3°C° 0 mm 3 mps 752 mmHg 79%
    08:00 +4°C° 0 mm 4 mps 752 mmHg 78%
    09:00 +5°C° 0 mm 4 mps 752 mmHg 74%
    10:00 +7°C° 0 mm 4 mps 752 mmHg 70%
    11:00 +8°C° 0 mm 4 mps 752 mmHg 66%
    12:00 +10°C° 0 mm 4 mps 751 mmHg 63%
    13:00 +10°C° 0 mm 5 mps 751 mmHg 60%
    14:00 +10°C° 0 mm 5 mps 750 mmHg 57%
    15:00 +10°C° 0 mm 5 mps 749 mmHg 60%
    16:00 +9°C° 0 mm 5 mps 749 mmHg 63%
    17:00 +8°C° 0 mm 5 mps 748 mmHg 66%
    18:00 +8°C° 0.3 mm 5 mps 747 mmHg 70%
    19:00 +7°C° 0.3 mm 6 mps 746 mmHg 73%
    20:00 +6°C° 0.3 mm 7 mps 745 mmHg 77%
    21:00 +5°C° 1.4 mm 8 mps 743 mmHg 80%
    22:00 +5°C° 1.4 mm 8 mps 742 mmHg 83%
    23:00 +5°C° 1.4 mm 9 mps 741 mmHg 86%

    Tomorrow, 27 September, Thursday

    Time Temperature Precipitation Wind Pressure Humidity
    00:00 +5°C° 1.2 mm 8 mps 739 mmHg 86%
    01:00 +5°C° 1.2 mm 8 mps 738 mmHg 87%
    02:00 +6°C° 1.2 mm 8 mps 737 mmHg 87%
    03:00 +6°C° 0.9 mm 7 mps 737 mmHg 87%
    04:00 +6°C° 0.9 mm 7 mps 736 mmHg 88%
    05:00 +7°C° 0.9 mm 6 mps 736 mmHg 88%
    06:00 +8°C° 0.4 mm 6 mps 736 mmHg 85%
    07:00 +8°C° 0.4 mm 6 mps 736 mmHg 82%
    08:00 +8°C° 0.4 mm 5 mps 737 mmHg 80%
    09:00 +8°C° 0.1 mm 6 mps 737 mmHg 75%
    10:00 +8°C° 0.1 mm 7 mps 737 mmHg 70%
    11:00 +9°C° 0.1 mm 7 mps 738 mmHg 66%
    12:00 +9°C° 0.4 mm 7 mps 738 mmHg 68%
    13:00 +8°C° 0.4 mm 7 mps 738 mmHg 69%
    14:00 +8°C° 0.4 mm 7 mps 739 mmHg 71%
    15:00 +8°C° 0 mm 6 mps 739 mmHg 72%
    16:00 +7°C° 0 mm 5 mps 739 mmHg 73%
    17:00 +7°C° 0 mm 4 mps 740 mmHg 74%
    18:00 +6°C° 0 mm 4 mps 740 mmHg 75%
    19:00 +6°C° 0 mm 4 mps 740 mmHg 76%
    20:00 +5°C° 0 mm 4 mps 741 mmHg 77%
    21:00 +5°C° 0 mm 4 mps 741 mmHg 77%
    22:00 +5°C° 0 mm 4 mps 741 mmHg 78%
    23:00 +5°C° 0 mm 4 mps 741 mmHg 78%

    Day after tomorrow, 28 September, Friday

    Time Temperature Precipitation Wind Pressure Humidity
    00:00 +5°C° 0 mm 4 mps 740 mmHg 78%
    01:00 +5°C° 0 mm 4 mps 740 mmHg 78%
    02:00 +5°C° 0 mm 3 mps 739 mmHg 78%
    03:00 +5°C° 1.7 mm 3 mps 738 mmHg 83%
    04:00 +5°C° 1.7 mm 4 mps 737 mmHg 88%
    05:00 +5°C° 1.7 mm 4 mps 735 mmHg 93%
    06:00 +6°C° 2.7 mm 4 mps 734 mmHg 93%
    07:00 +8°C° 2.7 mm 4 mps 734 mmHg 93%
    08:00 +9°C° 2.7 mm 5 mps 733 mmHg 93%
    09:00 +9°C° 1 mm 5 mps 733 mmHg 91%
    10:00 +9°C° 1 mm 5 mps 734 mmHg 88%
    11:00 +9°C° 1 mm 6 mps 734 mmHg 85%
    12:00 +8°C° 0.1 mm 5 mps 736 mmHg 83%
    13:00 +7°C° 0.1 mm 5 mps 737 mmHg 80%
    14:00 +7°C° 0.1 mm 5 mps 738 mmHg 78%
    15:00 +6°C° 0 mm 4 mps 739 mmHg 77%
    16:00 +6°C° 0 mm 4 mps 740 mmHg 77%
    17:00 +5°C° 0 mm 3 mps 741 mmHg 77%
    18:00 +4°C° 0 mm 3 mps 742 mmHg 80%
    19:00 +4°C° 0 mm 3 mps 743 mmHg 82%
    20:00 +3°C° 0 mm 3 mps 743 mmHg 85%
    21:00 +3°C° 0 mm 3 mps 744 mmHg 87%
    22:00 +2°C° 0 mm 3 mps 744 mmHg 88%
    23:00 +3°C° 0 mm 2 mps 745 mmHg 90%

    29 September, Saturday

    Time Temperature Precipitation Wind Pressure Humidity
    00:00 +3°C° 0 mm 2 mps 745 mmHg 90%
    01:00 +3°C° 0 mm 2 mps 746 mmHg 91%
    02:00 +2°C° 0 mm 2 mps 746 mmHg 91%
    03:00 +2°C° 0 mm 2 mps 747 mmHg 91%
    04:00 +1°C° 0 mm 2 mps 748 mmHg 91%
    05:00 +1°C° 0 mm 2 mps 748 mmHg 91%
    06:00 +1°C° 0 mm 3 mps 749 mmHg 85%
    07:00 +2°C° 0 mm 3 mps 749 mmHg 80%
    08:00 +3°C° 0 mm 3 mps 750 mmHg 74%
    09:00 +4°C° 0 mm 3 mps 751 mmHg 67%
    10:00 +5°C° 0 mm 4 mps 751 mmHg 61%
    11:00 +6°C° 0 mm 4 mps 752 mmHg 54%
    12:00 +6°C° 0 mm 4 mps 752 mmHg 53%
    13:00 +6°C° 0 mm 4 mps 752 mmHg 52%
    14:00 +6°C° 0 mm 4 mps 753 mmHg 52%
    15:00 +5°C° 0 mm 3 mps 753 mmHg 56%
    16:00 +4°C° 0 mm 3 mps 753 mmHg 60%
    17:00 +4°C° 0 mm 2 mps 753 mmHg 65%
    18:00 +3°C° 0 mm 2 mps 754 mmHg 68%
    19:00 +2°C° 0 mm 2 mps 754 mmHg 71%
    20:00 +1°C° 0 mm 2 mps 755 mmHg 74%
    21:00 +1°C° 0 mm 2 mps 755 mmHg 76%
    22:00 +1°C° 0 mm 2 mps 755 mmHg 77%
    23:00 +1°C° 0 mm 2 mps 756 mmHg 78%

    30 September, Sunday

    Time Temperature Precipitation Wind Pressure Humidity
    00:00 +1°C° 0 mm 2 mps 756 mmHg 79%
    01:00 +1°C° 0 mm 2 mps 756 mmHg 79%
    02:00 +1°C° 0 mm 2 mps 756 mmHg 79%
    03:00 0°C° 0 mm 3 mps 756 mmHg 79%
    04:00 0°C° 0 mm 3 mps 756 mmHg 80%
    05:00 0°C° 0 mm 3 mps 756 mmHg 80%
    06:00 +1°C° 0 mm 3 mps 756 mmHg 76%
    07:00 +1°C° 0 mm 4 mps 756 mmHg 72%
    08:00 +3°C° 0 mm 4 mps 756 mmHg 68%
    09:00 +5°C° 0 mm 5 mps 755 mmHg 63%
    10:00 +6°C° 0 mm 5 mps 755 mmHg 58%
    11:00 +8°C° 0 mm 6 mps 755 mmHg 53%
    12:00 +8°C° 0 mm 6 mps 755 mmHg 53%
    13:00 +8°C° 0 mm 5 mps 754 mmHg 52%
    14:00 +9°C° 0 mm 5 mps 754 mmHg 51%
    15:00 +8°C° 0 mm 5 mps 753 mmHg 54%
    16:00 +7°C° 0 mm 4 mps 753 mmHg 58%
    17:00 +6°C° 0 mm 4 mps 753 mmHg 62%
    18:00 +5°C° 0 mm 4 mps 753 mmHg 63%
    19:00 +5°C° 0 mm 4 mps 753 mmHg 63%
    20:00 +5°C° 0 mm 4 mps 753 mmHg 64%
    21:00 +4°C° 0 mm 4 mps 752 mmHg 66%
    22:00 +4°C° 0 mm 4 mps 752 mmHg 67%
    23:00 +4°C° 0 mm 4 mps 752 mmHg 68%

    1 October, Monday

    Time Temperature Precipitation Wind Pressure Humidity
    00:00 +4°C° 0 mm 4 mps 752 mmHg 70%
    01:00 +4°C° 0 mm 4 mps 752 mmHg 72%
    02:00 +4°C° 0 mm 4 mps 751 mmHg 74%
    03:00 +4°C° 0 mm 4 mps 751 mmHg 76%
    04:00 +4°C° 0 mm 4 mps 751 mmHg 78%
    05:00 +4°C° 0 mm 4 mps 751 mmHg 80%
    06:00 +4°C° 0 mm 4 mps 751 mmHg 79%
    07:00 +5°C° 0 mm 4 mps 751 mmHg 77%
    08:00 +6°C° 0 mm 4 mps 751 mmHg 76%
    09:00 +7°C° 0 mm 5 mps 751 mmHg 71%
    10:00 +8°C° 0 mm 5 mps 751 mmHg 67%
    11:00 +10°C° 0 mm 5 mps 750 mmHg 62%
    12:00 +10°C° 0 mm 5 mps 750 mmHg 61%
    13:00 +12°C° 0 mm 4 mps 750 mmHg 59%
    14:00 +12°C° 0 mm 4 mps 750 mmHg 58%
    15:00 +11°C° 0 mm 4 mps 750 mmHg 64%
    16:00 +10°C° 0 mm 3 mps 749 mmHg 69%
    17:00 +8°C° 0 mm 2 mps 749 mmHg 75%
    18:00 +8°C° 0 mm 2 mps 749 mmHg 79%
    19:00 +7°C° 0 mm 2 mps 750 mmHg 82%
    20:00 +6°C° 0 mm 2 mps 750 mmHg 85%
    21:00 +6°C° 0 mm 2 mps 750 mmHg 87%
    22:00 +6°C° 0 mm 2 mps 749 mmHg 89%
    23:00 +5°C° 0 mm 2 mps 749 mmHg 91%
    Show more